Regional Weather Roundup
Issued by NWS

Home | Current Version | Previous Version | Text Only | Print | Product List | Glossary Off
Versions: 1 2 3 4 5 6 7 8 9 10 11 12 13 14 15 16 17 18 19 20 21 22 23 24 25 26 27 28 29 30 31 32 33 34 35 36 37 38 39 40 41 42 43 44 45 46 47 48 49 50

000
ASUS43 KBIS 281802
RWRND

NORTH DAKOTA REGIONAL WEATHER ROUNDUP
NATIONAL WEATHER SERVICE BISMARCK ND
100 PM CDT SAT MAY 28 2016

NOTE: "FAIR" INDICATES FEW OR NO CLOUDS BELOW 12,000 FEET WITH NO
SIGNIFICANT WEATHER AND/OR OBSTRUCTIONS TO VISIBILITY.


NDZ001>003-009>011-017-281900-
NORTHWEST NORTH DAKOTA

CITY           SKY/WX    TMP DP  RH WIND       PRES   REMARKS
WILLISTON      PTSUNNY   66  53  63 NE8       29.89S
6HR MIN TEMP:  55; 6HR MAX TEMP:  67;

MINOT          CLOUDY    64  53  67 CALM      29.90S
MINOT AFB      CLOUDY    61  53  76 VRB3      29.89F
$$

NDZ018>021-031>035-040>046-281900-
SOUTHWEST NORTH DAKOTA

CITY           SKY/WX    TMP DP  RH WIND       PRES   REMARKS
BISMARCK       PTSUNNY   68  54  60 NE3       29.87F
6HR MIN TEMP:  57; 6HR MAX TEMP:  69;

DICKINSON      PTSUNNY   69  45  41 S5        29.85F
GARRISON         N/A     62  54  74 E7        29.90S
6HR MIN TEMP:  56; 6HR MAX TEMP:  63;

HETTINGER ARPT PTSUNNY   73  48  41 VRB6      29.89S
$$

NDZ004>008-012>016-024-026-027-054-281900-
NORTHEAST NORTH DAKOTA

CITY           SKY/WX    TMP DP  RH WIND       PRES   REMARKS
GRAND FORKS    CLOUDY    70  54  56 N8        29.82F
GRND FRKS AFB  PTSUNNY   72  55  54 NE6       29.83F
DEVILS LAKE    CLOUDY    62  56  80 N6        29.89S
$$

NDZ022-023-025-028>030-036>039-047>053-281900-
SOUTHEAST NORTH DAKOTA

CITY           SKY/WX    TMP DP  RH WIND       PRES   REMARKS
FARGO          MOSUNNY   71  56  58 N14       29.79F
6HR MIN TEMP:  61; 6HR MAX TEMP:  71;

JAMESTOWN      CLOUDY    65  58  78 N8        29.85F
$$




USA.gov is the U.S. government's official web portal to all federal, state and local government web resources and services.